Showing default

TEN-KOH, 43677

Orbit data source: Space-Track

TEN-KOH, 43677 is a payload satellite owned by Kyutech (JP) in SSO that was launched on Mon, 29 Oct 2018 UTC via an H-IIA 202 launch vehicle from the Tanegashima Space Center (TNSTA). Payload-class satellites include a variety of spacecraft equipped with specific instruments for various scientific and technological missions. These include communications satellites like Starlink; space stations such as the ISS; scientific satellites like the Hubble; Earth observation satellites from companies like Planet Labs, Umbra, and HawkEye 360; GPS; miniature CubeSats for education and research; and military/defense satellites.

Loading next visibility...
Identifier
43677, 2018-084G
Orbit
SSO
Country
Flag of JPJP / JPN
Related business
Manufacturer
Kyutech
Mission
Operational Amateur Technology
Bus & Motor
SHINEN-2, Unknown motor
Mass
22.3 kg wet, 22.3 kg dry
Launch date (UTC)
2018-10-29 (7 years ago)
Launch vehicle
H-IIA 202
Launch site
Tanegashima Space Center (TNSTA)
Object type
Payload
Rocket body
Debris
Shape & HBR
Polyhedral Cyl, 0.3 m
Radar Cross Section
0.295 m², Medium (>0.1 m² and < 1m²)

Expand to show TLE details & history
Last TLE update: 9 hours ago

TLE from 9 hours ago
0 TEN-KOH
1 43677U 18084G   26100.47417863  .00003328  00000-0  25436-3 0  9996
2 43677  98.0783 289.9893 0009425 348.2949  11.8054 15.02652224405996
Epoch: 2026-04-10T11:22Z
TLE epoch observation values (Epoch: 2026-04-10T11:22:49.033Z)
Latitude
-0.00005°
Longitude
-79.42232°
Altitude
555.368 km
Speed
7.587 km/s
True Right ascension
19h 19m 57s
True Declination
0° 00' 00"
Sunlit
Object was in daylight at epoch
Visualization orbit readout
Latitude
Unknown
Longitude
Unknown
Altitude
Unknown
Speed
Unknown
Apparent Right ascension
Unknown
Apparent Declination
Unknown
Sunlit
N/A
Visualization observer readout
Local Sidereal Time
02:17:02
Azimuth
Unknown
Elevation
Unknown
Doppler factor
Unknown
Orbital elements
Apogee altitude
562.276 km
Perigee altitude
549.205 km
Semi-major axis
6,933.878 km
Eccentricity
0.00094
Inclination
98.0783°
RAAN
289.9893°
Arg. of periapsis
348.2949°
True anomaly
11.82752°
Mean anomaly
11.8054°
Eccentric anomaly
11.81646°
Mean motion
3.75906 °/min
Orbital period
95.77 mins
BSTAR
0.00025436
Loading maneuver chart data...
Computing Atmospheric mass density...

Documentation

Showing up to 5 results
|